Weather in Dubskoye

Russia / Nizhny Novgorod Oblast'     55°35′38″N   44°39′32″E
temp.,
°C
wind,
m/s
gust,
m/s
humid.,
%
clouds,
%
prec.,
mm/h
press.,
hPa
HPBL,
m
6 march, sat
sat600:00−10wnw489534 0.1 1011200
03:00−14wnw359657 0.1 101374
06:00−17wnw23900 0.0 101420
09:00−14wsw24890 0.0 1016117
12:00−9wsw35870 0.0 1016289
15:00−8wsw35871 0.0 1014460
18:00−10w239584 0.1 101436
21:00−12wsw229792 0.3 101423
7 march, sun
sun700:00−14wsw239789 0.1 101321
03:00−16wsw229783 0.1 101220
06:00−16ssw339823 0.0 101024
09:00−13ssw489337 0.0 1008264
12:00−8ssw71287100 0.0 1005611
15:00−6ssw91589100 0.2 1001976
18:00−6ssw81494100 0.4 996797
21:00−5ssw81494100 1.3 994896
8 march, mon
mon800:00−9wsw7168598 0.5 993613
03:00−10wsw7148663 0.5 995357
06:00−12sw5148757 0.0 996368
09:00−10sw5138566 0.0 996474
12:00−6ssw588872 0.0 994617
15:00−5sw249486 0.8 994338
18:00−7nw4995100 0.8 995415
21:00−10w51194100 0.9 998347
9 march, tue
tue900:00−11wnw61293100 0.1 1001442
03:00−13wnw61193100 0.1 1004395
06:00−15wnw4109583 0.1 1006274
09:00−15wnw599387 0.1 1009446
12:00−13wnw5790100 0.1 1010540
15:00−12wnw4789100 0.1 1012648
18:00−15wnw4894100 0.1 1013197
21:00−19wnw4697100 0.1 1015114
10 march, wed
wed1000:00−21wnw3410086 0.0 101659
03:00−23wnw3310091 0.1 101639
06:00−24wnw33100100 0.0 101728
09:00−22nw249792 0.0 1018164
12:00−18nw348882 0.0 1018368
15:00−17nw348790 0.0 1017496
18:00−22nnw229637 0.0 101820
21:00−25nnw1110021 0.0 101920